Hourly Data Report for May 14, 2012

All times are specified in Local Standard Time (LST). Add 1 hour to adjust for Daylight Saving Time where and when it is observed.

GANDER INTL A
NEWFOUNDLAND

48°56'13.000" N
54°34'05.000" W
151.20 m
8401703
71803
YQX

Download Data

Hourly Data (May 2012)
Hourly Data Report for May 14, 2012
Temp Definition
°C
Dew Point Temp Definition
°C
Rel Hum Definition
%
Wind Dir Definition
10's deg

Wind Spd Definition
km/h
Visibility Definition
km
Stn Press Definition
kPa
Hmdx Definition


Wind Chill Definition


Weather Definition


TIME
00:30 4.5 4.2 98 28 14 2.4 100.33     Fog
01:30 3.6 3.3 98 30 8 1.2 100.36     Fog
02:30 4.2 3.9 98 33 7 1.2 100.38     Fog
03:30 4.0 3.7 98   0 3.2 100.44     Fog
04:30 4.4 4.1 98   0 10.0 100.49     LegendNANA
05:30 5.0 4.6 97 18 6 6.4 100.56     Fog
06:30 6.9 6.0 94 28 12 10.0 100.63     LegendNANA
07:30 7.9 6.1 88 30 5 10.0 100.69     LegendNANA
08:30 9.8 6.0 77 26 9 10.0 100.71     Mostly Cloudy
09:30 10.6 6.2 74 26 10 10.0 100.73     LegendNANA
10:30 13.1 5.1 58 27 19 10.0 100.73     LegendNANA
11:30 14.2 4.0 50 28 18 10.0 100.71     Mainly Clear
12:30 15.2 3.1 44 27 17 10.0 100.69     LegendNANA
13:30 16.5 4.0 43 26 13 10.0 100.70     LegendNANA
14:30 16.9 3.0 39 25 9 10.0 100.69     Mainly Clear
15:30 17.6 4.3 41 27 12 10.0 100.67     LegendNANA
16:30 17.6 3.2 38 30 9 10.0 100.67     LegendNANA
17:30 17.3 4.4 42 32 10 10.0 100.68     Mostly Cloudy
18:30 14.6 8.2 65 8 17 10.0 100.71     LegendNANA
19:30 12.5 8.0 74 9 19 10.0 100.74     LegendNANA
20:30 11.1 7.6 79 12 12 10.0 100.78     Mostly Cloudy
21:30 10.1 7.5 84 14 11 10.0 100.80     LegendNANA
22:30 11.8 5.5 65 21 21 10.0 100.82     LegendNANA
23:30 9.9 3.7 65 21 18 10.0 100.85     Mainly Clear

Notes on Data Quality.

Legend

  • E = Estimated
  • M = Missing
  • NA = Not Available
Date modified: